Regional Weather Roundup
Issued by NWS

Home | Current Version | Previous Version | Text Only | Print | Product List | Glossary Off
Versions: 1 2 3 4 5 6 7 8 9 10 11 12 13 14 15 16 17 18 19 20 21 22 23 24 25 26 27 28 29 30 31 32 33 34 35 36 37 38 39 40 41 42 43 44 45 46 47 48 49 50

000
ASUS43 KMKX 012000
RWRWI

WISCONSIN REGIONAL WEATHER ROUNDUP
NATIONAL WEATHER SERVICE MILWAUKEE/SULLIVAN WI
300 PM CDT SUN MAY 01 2016

NOTE: "FAIR" INDICATES FEW OR NO CLOUDS BELOW 12,000 FEET WITH NO
SIGNIFICANT WEATHER AND/OR OBSTRUCTIONS TO VISIBILITY.

WIZ001-002-006>008-014>016-023>028-012100-
NORTHWEST WISCONSIN

CITY           SKY/WX    TMP DP  RH WIND       PRES   REMARKS
SUPERIOR ARPT  SUNNY     47  37  68 NE10      30.22F
ASHLAND        SUNNY     51  39  63 NE13      30.20F
HAYWARD        SUNNY     58  34  40 NE16G22   30.13F
SIREN          SUNNY     60  31  33 NE9G20    30.13F
CUMBERLAND     SUNNY     55  32  41 NE9       30.11F
RICE LAKE      PTSUNNY   59  32  36 N13G21    30.11F
CHETEK         MOSUNNY   61  35  38 E5        30.10S
LADYSMITH      MOSUNNY   64  32  31 NE5G18    30.10F
EAU CLAIRE     NOT AVBL
MENOMONIE      PTSUNNY   62  32  31 N13       30.09S
NEW RICHMOND   MOSUNNY   59  31  34 NE9G18    30.11S
OSCEOLA        MOSUNNY   60  34  37 NE12G17   30.14F
$$

WIZ003>005-009-010-017-018-012100-
NORTH CENTRAL WISCONSIN

CITY           SKY/WX    TMP DP  RH WIND       PRES   REMARKS
MANITOWISH WTR CLOUDY    58  33  38 NE10      30.11S
ARBOR VITAE    PTSUNNY   60  29  30 NE10G16   30.10S
WOODRUFF       PTSUNNY   60  29  30 NE10G16   30.10S
RHINELANDER    CLOUDY    60  28  29 VRB7      30.08F
EAGLE RIVER    CLOUDY    58  25  27 NE9       30.09F
LAND O LAKES   CLOUDY    57  29  34 NE9       30.11F
PHILLIPS       MOSUNNY   59  32  35 E9        30.09S
TOMAHAWK       PTSUNNY   59  27  29 NE6G18    30.08S
MEDFORD        CLOUDY    60  32  35 NE9       30.06F
MERRILL        PTSUNNY   61  30  30 E14       30.07S
$$

WIZ029-030-035-036-043>047-012100-
CENTRAL WISCONSIN

CITY           SKY/WX    TMP DP  RH WIND       PRES   REMARKS
WAUSAU         CLOUDY    62  30  29 E12       30.04F
MOSINEE        MOSUNNY   61  30  31 E10G17    30.07F
MARSHFIELD     CLOUDY    58  29  33 E14       30.06F
STEVENS POINT  CLOUDY    56  30  36 E14       30.08F
WAUPACA        CLOUDY    60  30  31 NE15G23   30.08F
WAUTOMA        CLOUDY    58  34  40 E18G25    30.06R
WISC RAPIDS    CLOUDY    59  29  31 E12G21    30.08F
CAMP DOUGLAS   NOT AVBL
$$

WIZ011>013-019>022-031-037>040-048>050-012100-
NORTHEAST WISCONSIN

CITY           SKY/WX    TMP DP  RH WIND       PRES   REMARKS
ANTIGO         PTSUNNY   60  31  34 NE8G17    30.07F
SHAWANO        SUNNY     59  35  39 E12       30.09F
OCONTO         SUNNY     55  38  51 E10       30.11S
STURGEON BAY   SUNNY     54  36  50 NE15G22   30.13F
GREEN BAY      PTSUNNY   57  41  55 NE18      30.09S
MANITOWOC      NOT AVBL
APPLETON       PTSUNNY   55  36  47 NE15G21   30.06S
CLINTONVILLE   CLOUDY    57  32  38 E14       30.09S
OSHKOSH        MOSUNNY   57  42  57 NE13G22   30.05F
$$

WIZ032>034-041-042-053>061-012100-
SOUTHWEST WISCONSIN

CITY           SKY/WX    TMP DP  RH WIND       PRES   REMARKS
LA CROSSE      CLOUDY    56  38  50 NE8       30.06F
SPARTA         CLOUDY    55  40  57 E7        30.07F
VIROQUA        CLOUDY    51  41  69 NE7       30.05S
BOSCOBEL       CLOUDY    53  42  66 NE7       30.05S
PRAIRIE DU CHI CLOUDY    51  41  68 NE9       30.04S
PLATTEVILLE    CLOUDY    52  46  79 NE15      30.02R
$$

WIZ056-057-062-063-064-067-068-012100-
SOUTH CENTRAL WISCONSIN

CITY           SKY/WX    TMP DP  RH WIND       PRES   REMARKS
REEDSBURG      CLOUDY    53  42  66 NE12G17   30.04F
BARABOO/DELLS  CLOUDY    56  38  52 NE15G23   30.03F
LONE ROCK      NOT AVBL
MINERAL POINT  CLOUDY    52  45  76 NE13      30.02S
MADISON        PTSUNNY   58  43  57 NE14      30.01F
MIDDLETON      CLOUDY    56  45  66 NE13      30.02F
WATERTOWN      MOSUNNY   56  42  57 NE16G23   30.01F
MONROE         CLOUDY    52  45  76 N12       30.01R
JANESVILLE     CLOUDY    55  45  67 E14G20    30.00S
$$

WIZ051-052-058>065-066-070>072-012100-
SOUTHEAST WISCONSIN

CITY           SKY/WX    TMP DP  RH WIND       PRES   REMARKS
MILWAUKEE      CLOUDY    46  40  79 NE16      30.03F
WAUKESHA       MOSUNNY   54  39  58 NE12G23   30.03S
MILWAUKEE/TIMM CLOUDY    50  37  62 NE15G22   30.04S
RACINE         CLOUDY    45  39  79 N12G20    30.04S
BURLINGTON     CLOUDY    49  43  78 E9        30.02S
KENOSHA        CLOUDY    48  42  80 NE14      30.03R
FOND DU LAC    MOSUNNY   59  40  49 E23       30.04F
SHEBOYGAN      SUNNY     53  40  61 NE24G32   30.05F
WEST BEND      CLOUDY    54  41  62 NE13G20   30.03S
JUNEAU         CLOUDY    56  40  56 NE13G25   30.04S
$$

LSZ147-162-012100-
LAKE SUPERIOR

STATION/POSITION TIME  TEMP    WIND        PRES    WAVE
                       AIR SEA DIR/SP/G            HT/PER
                 (UTC) (F)     (DEG/KT/KT) (MB)    (FT/S)
W MID LAKE BUOY  1850   38 37   50/  8/ 10 1024.2F   3/ 6
DEVILS ISLAND    1900   39      80/ 12/ 13 1024.3F
SAXON HARBOR     1900   40      20/  7/  9 1022.7F
$$

LMZ867-665-643>646-012100-
LAKE MICHIGAN

STATION/POSITION TIME  TEMP    WIND        PRES    WAVE
                       AIR SEA DIR/SP/G            HT/PER
                 (UTC) (F)     (DEG/KT/KT) (MB)    (FT/S)
CHAMBERS ISLAND  1900   45      20/ 11/ 12 1020.3S
N MID LAKE BUOY  1850   41 39   20/  6/  8 1020.3F   1
NORTHPORT PIER   1900   44      70/ 10/ 11 1020.3S
KEWAUNEE LAKESHO 1900   47      30/ 11/ 15 1018.5R
SHEBOYGAN LAKESH 1900   43      20/ 16/ 18 1018.9F
PORT WASHINGTON  1900   49      40/ 18/ 21 1018.3
S MID LAKE BUOY  1850   42 40   20/ 10/ 10 1016.0F   2/ 4
KENOSHA   LAKESH 1900   44      20/ 17/ 21 1016.3F
$$

TC  - TEMPERATURE IN CELSIUS
VSB - VISIBILITY IN STATUTE MILES
WCI - WIND CHILL INDEX
HX  - HEAT INDEX




USA.gov is the U.S. government's official web portal to all federal, state and local government web resources and services.